Regional Weather Roundup
Issued by NWS Charleston, SC

Current Version | Previous Version | Text Only | Print | Product List | Glossary On
Versions: 1 2 3 4 5 6 7 8 9 10 11 12 13 14 15 16 17 18 19 20 21 22 23 24 25 26 27 28 29 30 31 32 33 34 35 36 37 38 39 40 41 42 43 44 45 46 47 48 49 50
000 ASUS42 KCHS 010225 RWRCHS REGIONAL WEATHER ROUNDUP NATIONAL WEATHER SERVICE CHARLESTON SC 1000 PM EDT THU JUL 31 2014 NOTE: "FAIR" INDICATES FEW OR NO CLOUDS BELOW 12,000 FEET WITH NO SIGNIFICANT WEATHER AND/OR OBSTRUCTIONS TO VISIBILITY. NOT ALL STATIONS ARE QUALITY CONTROLLED BY THE NATIONAL WEATHER SERVICE. USE DATA WITH CAUTION...ESPECIALLY DEWPOINT OBSERVATIONS. SCZ027-030-031-034>040-042>050-010300- ...SOUTH CAROLINA... CITY SKY/WX TMP DP RH WIND PRES REMARKS N CHARLESTON MOCLDY 77 73 87 NE8 30.04R WATERFRONT PRK N/A 79 N/A N/A E10 N/A FORT JOHNSON NOT AVBL MOUNT PLEASANT DRIZZLE 75 75 100 N3 30.04R JOHNS ISLAND MOCLDY 77 72 83 N5 30.03R HAZE PINOPOLIS N/A 75 72 88 E15 29.96F MONCKS CORNER NOT AVBL SUMMERVILLE FAIR 73 73 100 CALM 30.05S BEAUFORT MCAS MOCLDY 77 74 90 E7 30.02S BEAUFORT ARPT FAIR 79 77 94 NE6 30.02R HILTON HEAD IS PTCLDY 79 73 83 CALM 30.03R GEORGETOWN NOT AVBL WALTERBORO MOCLDY 73 N/A N/A NE3 30.05R ORANGEBURG MOCLDY 73 67 81 NE6 30.06S BARNWELL MOCLDY 75 72 88 E7 30.06R AIKEN CLOUDY 70 70 100 NE8 30.11R MANNING MOCLDY 72 N/A N/A E5 30.07S KINGSTREE NOT AVBL COLUMBIA CLOUDY 73 66 78 E6 30.07S SUMTER NOT AVBL FLORENCE CLOUDY 74 70 87 NE7 30.09R MYRTLE BEACH LGT RAIN 81 73 78 E16 30.07R N MYRTLE BEACH LGT RAIN 81 72 74 E14G24 30.08R $$ GAZ063-065-086>088-099>101-113>116-118-119-134-136>141-150-010300- ...GEORGIA... CITY SKY/WX TMP DP RH WIND PRES REMARKS SAVANNAH ARPT CLOUDY 79 75 87 NE5 30.02R HUNTER AAF MOCLDY 81 73 78 E3 30.00R FORT STEWART MOCLDY 75 73 94 CALM 30.00R STATESBORO NOT AVBL SYLVANIA CLOUDY 76 75 96 E6 30.04R CLAXTON FAIR 79 79 100 CALM 30.01R THOMSON CLOUDY 71 71 100 NE5 30.11S AUGUSTA-BUSH CLOUDY 73 69 87 NE5 30.05R AUGUSTA-DANIEL LGT RAIN 73 70 90 NE9 30.06S SWAINSBORO CLOUDY 79 75 89 NE5 30.04R VIDALIA N/A 77 73 88 NE3 30.02R ALMA MOCLDY 81 70 69 E3 29.99R WAYCROSS MOCLDY 85 73 67 S3 30.00R HX 92 JESUP FAIR 82 72 69 CALM 30.01R BRUNSWICK PTCLDY 86 70 58 SE8 30.00R HX 90 SAINT SIMONS PTCLDY 84 71 65 SE9 29.99R $$ SCZ027-028-034-036>038-045-046-048>050-GAZ119-141-010300- ...LAKE AND SUPPLEMENTAL COASTAL OBSERVATIONS... STATION/POSITION TIME TEMP WIND PRES WAVE SWELL AIR SEA DIR/SP/G HT/PER HT/PER/DIR (UTC) (F) (DEG/KT/KT) (MB) (FT/S) (FT/S/D) UPR LAKE MARION NOT AVBL WINYAH BAY 0200 80 70/ 14 1017.0R LAKE MURRAY 0100 71 60/ 3/ 6 1017.9F ACE BASIN NERRS 0200 75 20/ 1 1017.0R FORT PULASKI 0200 82 130/ 4/ 4 1016.5R SAPELO ISLAND 0200 83 140/ 5 1016.0S $$ ANZ835-935-AMZ111-154-330-350-352-354-374-450-454-472-010300- ...C-MAN AND BUOY OBSERVATIONS... STATION/POSITION TIME TEMP WIND PRES WAVE SWELL AIR SEA DIR/SP/G HT/PER HT/PER/DIR (UTC) (F) (DEG/KT/KT) (MB) (FT/S) (FT/S/D) FOLLY BEACH CMAN 0200 82 150/ 11/ 13 1017.2R BUOY 41004 0200 83 83 120/ 14/ 16 1015.9F 4/ 6 2/14 BUOY 41008 0200 85 85 140/ 14/ 16 1015.4R 3/ 8 2/ 90/ 8 5E ST. MARYS GA 0200 86 N/A 3/ 8 FRYING PAN BUOY NOT AVBL BUOY 41025 0200 VRB 12/ 16 1020.6R 4/ 6 2/110/ 8 CAPE LOOKOUT NC 0200 80 100/ 15/ 16 1020.0R BUOY 41002 0149 81 81 180/ 6/ 8 1020.0R 4/ 7 3/110/ 7 BUOY 41010 0200 83 84 150/ 10/ 14 1016.9R 3/ 5 2/ 90/ 8 BUOY 41012 NOT AVBL ST AUGUSTINE FL 0200 83 140/ 11/ 12 1016.1R CAPERS NEARSHORE 0100 82 140/ 14/ 17 N/A FRIPP NEARSHORE NOT AVBL $$

USA.gov is the U.S. government's official web portal to all federal, state and local government web resources and services.